Temperature
21 21 21 20 20 20 20 20 19 19 19 18 18 18 18 18 17 17 17 17 17 17 17 17 16 16 16 16 16 15 15 15 15 15 15 15 14 14 14 14 14 14 14
21 21 21 21 20 20 20 20 19 19 19 18 18 18 18 18 17 17 17 17 17 17 17 16 16 16 16 16 16 15 15 15 15 15 15 14 14 14 14 14 14 14 14
21 21 21 21 20 20 20 20 19 19 19 18 18 18 18 17 17 17 17 17 17 17 16 16 16 16 16 16 15 15 15 15 15 15 15 14 14 14 14 14 14 13 13
22 21 21 21 21 20 20 20 19 19 19 19 18 18 18 17 17 17 17 17 17 16 16 16 16 16 16 15 15 15 15 15 15 14 14 14 14 14 14 13 13 13 13
22 21 21 21 20 20 20 19 19 19 19 18 18 18 17 17 17 17 17 17 16 16 16 16 16 15 15 15 15 15 15 15 14 14 14 14 14 14 13 13 13 13 13
21 21 21 21 20 20 20 19 19 19 18 18 18 18 17 17 17 17 16 16 16 16 16 16 16 15 15 15 15 15 15 14 14 14 14 14 14 13 13 13 13 13 12
21 21 21 20 20 20 19 19 19 19 18 18 18 17 17 17 17 17 16 16 16 16 16 15 15 15 15 15 15 14 14 14 14 14 14 13 13 13 13 13 13 13 12
21 21 20 20 20 20 19 19 19 18 18 18 17 17 17 17 17 17 16 16 16 16 15 15 15 15 15 14 14 14 14 14 14 13 13 13 13 13 13 13 12 12 12
20 20 20 20 19 19 19 19 18 18 18 17 17 17 17 17 17 16 16 16 16 15 15 15 15 15 14 14 14 14 14 14 14 13 13 13 13 13 12 12 12 12 12
20 20 20 19 19 19 18 18 18 18 17 17 17 17 16 16 16 16 16 15 15 15 15 15 14 14 14 14 14 14 14 14 13 13 13 13 12 12 12 12 12 11 11
20 20 19 19 19 18 18 18 17 17 17 17 17 16 16 16 16 16 15 15 15 15 15 15 14 14 14 14 14 13 13 13 13 13 12 12 12 12 12 12 11 11 11
19 19 19 19 18 18 18 17 17 17 17 16 16 16 16 15 15 15 15 15 15 14 14 14 14 14 14 13 13 13 13 13 13 12 12 12 12 12 12 11 11 11 11
19 19 19 18 18 18 17 17 16 16 16 16 15 15 15 15 15 15 15 14 14 14 14 14 14 14 13 13 13 13 13 13 12 12 12 12 12 11 11 11 11 11 11
19 19 18 18 18 17 17 16 16 16 16 15 15 15 15 14 15 14 14 14 14 14 14 13 14 13 13 13 13 13 13 12 12 12 11 11 11 11 11 11 11 10 10
19 18 18 18 17 17 16 16 16 16 16 15 15 15 14 14 14 14 14 14 14 13 13 13 14 13 13 13 13 12 12 12 12 11 11 11 11 11 10 10 10 10 10
18 18 18 17 17 17 16 16 15 15 15 15 14 14 14 14 14 14 13 13 13 13 13 13 13 13 13 13 12 12 12 12 11 11 11 11 10 10 10 10 10 9 9
18 18 17 17 17 16 16 15 15 15 15 14 14 14 14 14 14 13 13 13 13 13 13 13 13 13 12 12 12 12 11 11 11 11 11 10 10 10 10 9 9 9 9
18 17 17 17 16 16 16 15 15 15 14 14 14 14 14 14 13 13 13 13 13 13 13 12 12 12 12 12 11 11 11 11 11 10 10 10 10 9 9 9 9 9 9
17 17 17 16 16 16 16 15 15 14 14 14 14 14 13 13 13 13 13 13 13 12 12 12 12 12 11 11 11 11 11 11 10 10 10 10 9 9 9 9 9 9 8
17 16 16 16 16 15 15 15 14 14 14 14 14 14 13 13 13 13 13 13 12 12 12 12 11 11 11 11 11 10 10 10 10 10 10 9 9 9 9 9 9 8 8
16 16 16 16 15 15 15 15 14 14 14 14 13 13 13 13 13 13 13 12 12 12 11 11 11 11 11 10 10 10 10 10 10 9 9 9 9 9 9 8 8 8 8
16 15 15 15 15 15 15 14 14 14 14 13 13 13 12 12 12 12 12 12 11 11 11 11 11 10 10 10 9 9 9 9 9 9 9 9 9 8 8 8 8 8 8
15 15 15 15 14 14 14 14 14 13 13 13 13 12 12 12 12 11 11 11 11 11 10 10 10 10 10 9 9 9 9 9 9 9 9 9 8 8 8 8 8 8 7
15 15 14 14 14 14 14 13 13 13 13 12 12 12 12 11 11 11 11 11 11 10 10 10 10 9 9 9 9 9 8 8 8 8 8 8 8 8 8 7 7 7 7
14 14 14 14 14 13 13 13 12 12 12 12 12 11 11 11 11 11 10 10 10 10 10 9 9 9 9 9 8 8 8 8 8 8 8 8 7 7 7 7 7 7 6
13 13 13 13 13 13 13 12 12 12 12 11 11 11 11 11 10 10 10 10 10 9 9 9 9 9 8 8 8 8 8 8 8 7 7 7 7 7 7 7 6 6 6
Wind_Speed
8 7 7 6 6 5 5 5 5 4 3 3 3 3 2 2 2 2 2 2 2 2 2 2 3 3 2 2 2 2 2 2 2 2 1 1 1 1 1 1 0 0 0
7 7 7 6 5 5 5 5 4 4 3 3 3 2 2 2 2 2 3 2 2 3 3 3 3 2 2 2 2 2 2 2 3 2 1 1 0 1 1 1 1 0 0
7 7 7 6 6 6 6 5 4 4 3 2 2 3 3 3 2 2 3 2 2 3 3 3 3 2 2 2 2 2 2 2 2 2 1 1 0 0 1 1 1 1 1
7 7 7 7 7 6 5 4 4 4 4 3 3 3 3 3 3 3 3 3 2 3 2 2 2 2 3 3 2 2 2 2 2 2 1 1 1 0 0 1 1 1 1
6 6 7 6 5 5 4 4 4 3 4 3 3 3 2 2 3 3 2 2 2 2 2 2 2 2 3 3 2 2 2 2 2 2 2 1 1 1 2 2 2 2 2
6 6 5 4 4 5 5 5 4 4 3 3 3 3 3 3 3 3 2 2 2 2 2 2 2 1 2 2 3 4 4 4 4 3 3 3 3 3 2 3 2 1 2
5 5 4 4 5 5 4 4 5 5 4 3 3 3 3 3 3 3 3 2 2 2 2 2 2 1 1 2 2 2 3 4 5 4 4 4 4 4 4 3 3 3 3
5 4 4 4 4 3 4 4 4 4 4 3 3 3 3 3 3 3 4 3 2 2 2 3 2 2 2 2 2 2 2 3 4 4 5 5 4 4 4 4 3 3 2
5 5 4 5 4 4 4 4 3 3 3 2 2 3 3 3 3 4 3 2 2 3 3 2 3 3 3 2 2 3 3 3 3 3 3 3 3 3 3 2 1 2 3
6 5 5 4 5 5 4 4 2 3 3 3 2 2 3 3 3 3 3 2 2 3 2 2 3 3 4 3 3 3 4 4 3 2 2 1 2 2 4 4 4 3 3
5 4 4 4 4 4 4 3 3 2 2 2 2 2 2 3 3 3 3 3 3 3 3 3 3 4 4 4 4 4 5 4 2 2 2 1 1 2 2 3 4 4 4
4 4 4 4 4 3 4 3 3 3 3 2 2 2 2 3 3 3 3 4 4 3 3 3 3 3 4 4 3 3 3 2 1 1 2 2 2 3 3 4 4 5 4
5 5 4 4 4 4 5 4 3 3 3 2 2 3 3 2 2 3 4 5 5 4 4 4 4 4 3 3 3 3 2 1 1 2 3 4 3 3 2 2 3 3 3
5 4 4 4 3 3 3 4 4 4 4 3 3 4 4 3 3 2 2 3 3 4 4 3 3 2 2 2 2 2 2 2 3 3 3 3 2 1 1 1 1 1 2
5 5 4 4 5 4 3 3 5 5 6 6 5 5 4 5 5 6 4 3 3 3 2 1 1 1 1 1 2 2 1 1 2 3 2 2 2 2 2 1 1 1 2
5 5 4 4 4 4 3 1 2 3 5 7 7 6 5 6 5 5 6 6 4 3 2 1 2 2 2 2 2 2 2 2 3 3 3 3 3 3 2 1 1 2 3
7 6 5 4 4 4 4 4 2 2 2 4 6 6 6 5 4 4 4 2 2 4 2 2 2 2 3 3 3 3 3 3 3 3 3 3 3 3 3 2 2 2 3
6 6 5 5 5 5 5 5 4 3 3 2 3 4 4 4 4 3 3 3 1 1 2 2 2 3 3 3 3 3 3 3 3 3 3 3 3 3 3 3 3 3 4
5 5 5 4 4 5 5 4 4 4 3 3 1 1 1 1 1 2 4 2 2 2 2 2 2 2 3 3 3 3 3 3 3 3 3 3 3 3 4 4 4 4 4
4 6 5 4 4 4 4 4 4 4 3 3 3 3 2 1 1 1 2 2 2 2 2 2 2 2 2 2 2 2 3 3 3 3 3 3 3 3 4 4 4 3 4
3 4 5 4 4 4 4 4 4 4 4 4 4 4 5 4 3 3 3 2 2 2 2 2 2 2 1 1 1 2 2 2 2 2 3 3 3 3 3 3 3 4 4
3 3 3 3 3 3 3 4 4 4 4 4 2 2 4 3 2 2 2 2 2 2 2 2 1 1 1 1 1 2 2 2 2 3 3 3 3 3 3 3 3 3 3
3 3 3 2 3 3 3 3 3 3 3 3 3 2 2 2 2 2 2 2 1 1 1 1 1 1 1 1 1 1 2 3 3 3 3 3 3 3 2 3 3 3 3
3 4 4 3 3 3 3 3 3 3 3 3 2 2 2 3 2 2 2 1 1 1 0 1 1 1 2 1 2 2 2 3 3 3 3 3 3 2 2 2 2 3 3
3 3 4 4 3 3 3 3 4 3 3 3 3 3 2 2 2 2 1 1 1 1 1 1 1 1 2 2 2 3 3 3 2 2 2 2 2 2 2 2 2 2 2
3 3 3 3 3 3 3 3 3 3 3 3 3 3 3 3 2 2 1 1 1 1 1 1 1 1 2 2 3 3 2 2 2 2 1 1 1 2 1 1 2 2 2
Wind_Direction
201 205 211 209 206 204 210 218 217 220 223 231 231 228 229 233 223 212 237 241 236 256 259 251 261 257 248 244 225 217 215 199 232 279 299 338 335 325 349 6 329 242 253
202 200 209 208 201 204 215 221 216 217 222 225 222 221 232 236 223 218 237 247 245 255 260 260 271 270 261 254 230 224 223 212 206 247 287 328 301 305 333 350 6 9 269
193 196 205 207 204 210 215 216 211 211 214 211 204 220 234 238 231 225 225 236 245 251 252 252 262 258 268 268 247 229 223 210 195 199 247 278 285 34 22 355 357 335 294
189 196 203 208 207 209 207 205 205 204 206 208 210 225 234 237 232 228 229 241 251 253 248 244 246 238 245 242 237 228 210 187 174 182 212 248 261 251 164 264 306 295 283
185 197 208 206 199 197 197 201 203 206 216 210 207 225 235 235 241 234 232 235 237 250 255 252 246 245 239 227 216 207 193 188 183 192 220 237 243 222 224 216 236 271 265
184 201 201 194 194 197 201 197 195 203 209 201 207 215 232 249 244 218 204 221 222 235 249 264 258 259 265 236 220 207 192 191 201 207 224 235 248 240 230 215 216 237 262
188 196 191 188 194 201 201 194 201 207 204 201 213 212 230 244 218 201 193 199 211 229 234 253 272 275 246 255 248 235 223 213 204 208 219 231 233 225 211 220 224 230 246
186 191 189 187 192 191 192 203 208 204 198 203 215 220 227 240 210 198 194 203 226 243 240 231 237 267 265 239 242 259 260 249 235 222 226 235 235 221 209 217 223 226 248
187 195 192 188 188 191 200 205 199 189 200 205 212 218 225 249 221 207 195 214 250 266 259 242 231 251 261 227 225 253 275 279 266 236 236 248 239 205 176 167 198 234 263
201 202 195 189 190 193 197 192 179 176 193 197 215 224 224 246 242 216 197 214 250 269 275 266 250 249 256 234 233 240 260 272 278 278 273 281 250 215 188 199 207 225 254
193 181 179 184 189 186 177 172 164 172 181 197 210 237 247 255 261 232 199 206 228 250 266 273 273 256 247 246 236 241 251 256 260 261 272 287 281 252 232 226 218 218 229
168 169 175 178 183 181 167 170 168 172 184 208 207 245 270 271 261 251 221 217 219 229 252 265 270 266 255 256 249 258 251 208 217 244 262 265 265 263 255 243 238 234 236
167 178 178 172 175 174 173 178 178 183 194 214 223 243 264 269 262 250 240 231 224 228 250 262 277 284 272 262 259 253 225 212 213 241 254 258 260 264 262 252 250 245 251
177 189 181 171 174 180 189 188 189 198 203 212 225 241 254 260 254 253 255 252 243 243 257 273 279 284 276 282 284 262 237 224 228 243 258 271 279 272 271 269 264 250 262
182 192 190 184 186 190 200 202 200 209 204 207 219 224 231 246 246 232 226 238 239 241 241 284 316 316 300 300 292 289 271 256 256 265 268 275 277 273 282 277 259 256 258
187 194 195 192 192 192 194 223 265 236 222 218 221 221 233 233 238 232 233 235 232 203 168 237 261 258 263 268 270 275 272 262 256 254 252 253 256 259 265 273 261 245 256
190 195 193 192 192 197 199 203 237 297 279 236 236 238 236 236 237 235 228 220 201 166 182 237 250 253 258 259 259 263 266 265 253 248 251 253 254 256 256 254 250 256 264
191 192 191 195 197 201 204 208 211 220 238 269 260 243 236 231 234 228 186 126 105 160 221 237 249 257 258 259 260 263 270 271 258 254 254 253 250 250 253 253 251 254 263
190 193 197 200 203 205 204 205 214 221 227 239 253 274 241 210 192 192 163 169 202 219 231 244 252 257 263 265 269 268 269 270 264 252 253 256 255 251 255 257 258 257 258
200 199 195 196 202 205 206 208 213 213 221 232 234 237 209 171 176 188 190 197 207 232 236 243 256 259 263 269 279 283 283 280 273 260 258 257 257 256 258 260 260 262 261
199 198 193 198 205 208 205 209 214 212 217 226 236 227 194 194 198 200 204 206 216 233 236 238 247 259 271 282 291 291 289 293 281 267 262 261 261 262 263 262 266 266 268
183 189 195 204 205 211 211 205 207 212 215 218 229 220 191 190 199 204 212 222 236 238 228 220 231 249 259 267 278 286 292 290 290 290 277 267 266 265 264 266 271 278 281
175 178 183 197 199 199 209 210 206 206 210 212 212 206 195 210 216 215 219 226 221 223 208 195 216 259 289 280 275 267 270 273 273 271 277 276 267 260 261 268 279 292 289
183 182 185 192 194 199 206 210 207 205 204 204 202 200 198 202 210 211 213 215 193 191 199 195 211 253 281 291 291 289 284 281 272 258 258 261 262 257 255 267 274 283 283
189 189 191 192 194 194 193 198 200 200 198 194 196 198 198 192 197 201 195 179 162 180 230 236 243 261 276 277 292 307 311 310 306 302 276 267 272 268 261 267 279 285 291
191 189 194 191 185 181 183 191 195 192 189 190 188 184 183 184 188 187 180 165 173 212 245 258 290 293 297 290 296 319 342 349 347 342 332 301 301 294 283 277 286 287 294
Height
1526 1528 1529 1531 1532 1533 1534 1534 1535 1535 1536 1536 1536 1536 1536 1535 1535 1534 1534 1534 1533 1533 1532 1531 1531 1530 1529 1529 1528 1527 1527 1526 1524 1523 1523 1523 1523 1523 1522 1522 1521 1521 1520
1523 1525 1527 1528 1529 1530 1531 1532 1532 1533 1533 1533 1533 1533 1533 1533 1532 1532 1532 1531 1531 1530 1530 1529 1528 1528 1527 1526 1525 1525 1524 1523 1523 1521 1521 1521 1521 1521 1521 1520 1520 1519 1519
1520 1522 1524 1525 1526 1527 1528 1529 1530 1530 1530 1531 1531 1531 1530 1530 1530 1530 1529 1529 1528 1528 1527 1526 1526 1525 1524 1524 1523 1522 1521 1521 1520 1519 1518 1518 1519 1519 1518 1518 1518 1517 1517
1517 1519 1520 1522 1523 1524 1525 1526 1527 1527 1527 1528 1528 1528 1528 1527 1527 1527 1526 1526 1525 1525 1524 1524 1523 1522 1522 1521 1520 1519 1519 1518 1518 1517 1516 1516 1516 1516 1515 1515 1515 1515 1514
1513 1515 1516 1518 1520 1521 1522 1522 1523 1524 1524 1524 1524 1524 1525 1524 1524 1524 1523 1522 1522 1522 1521 1521 1520 1520 1519 1518 1517 1517 1516 1516 1515 1514 1513 1513 1512 1512 1512 1512 1512 1512 1512
1510 1512 1514 1515 1516 1517 1518 1519 1520 1520 1521 1521 1521 1521 1521 1521 1521 1521 1520 1519 1519 1519 1518 1518 1517 1517 1516 1515 1515 1514 1514 1513 1512 1511 1510 1510 1509 1509 1509 1509 1509 1508 1508
1507 1509 1510 1511 1513 1514 1515 1516 1516 1517 1517 1517 1517 1518 1518 1518 1518 1518 1517 1517 1516 1516 1515 1515 1514 1513 1513 1512 1512 1511 1511 1510 1509 1509 1507 1507 1506 1506 1506 1506 1506 1506 1506
1505 1506 1507 1508 1509 1510 1512 1512 1513 1513 1514 1514 1514 1515 1515 1515 1515 1515 1514 1514 1513 1513 1512 1512 1511 1510 1510 1509 1509 1508 1507 1506 1506 1505 1504 1504 1504 1503 1503 1503 1503 1503 1503
1502 1503 1504 1505 1506 1507 1508 1509 1510 1511 1511 1512 1512 1512 1512 1512 1512 1512 1512 1511 1510 1509 1509 1509 1508 1507 1507 1507 1506 1504 1503 1503 1502 1502 1501 1501 1500 1500 1500 1499 1499 1499 1498
1499 1500 1502 1503 1504 1505 1506 1507 1507 1508 1508 1509 1509 1509 1509 1509 1509 1509 1509 1508 1507 1506 1506 1505 1505 1504 1504 1503 1502 1501 1499 1499 1498 1498 1497 1497 1497 1497 1497 1496 1496 1496 1495
1497 1498 1499 1500 1501 1502 1503 1504 1504 1505 1505 1505 1505 1506 1506 1506 1506 1506 1505 1505 1504 1503 1502 1502 1502 1501 1501 1500 1499 1498 1496 1496 1495 1494 1493 1493 1494 1493 1493 1493 1493 1493 1493
1495 1495 1497 1498 1499 1500 1501 1501 1502 1502 1502 1501 1502 1502 1502 1503 1503 1503 1502 1502 1501 1500 1499 1499 1498 1498 1497 1497 1496 1495 1494 1493 1492 1492 1491 1490 1490 1490 1490 1490 1490 1490 1489
1492 1493 1494 1495 1496 1497 1498 1498 1499 1499 1499 1498 1499 1498 1499 1499 1499 1499 1499 1498 1498 1497 1496 1496 1495 1495 1494 1494 1493 1492 1491 1490 1490 1489 1488 1487 1487 1487 1487 1486 1486 1485 1485
1489 1490 1491 1492 1492 1494 1495 1495 1495 1495 1495 1495 1495 1495 1496 1496 1496 1495 1495 1495 1494 1494 1493 1493 1492 1492 1491 1490 1490 1489 1488 1487 1487 1486 1485 1485 1484 1484 1483 1482 1482 1481 1480
1487 1488 1488 1489 1490 1491 1491 1491 1491 1492 1492 1493 1492 1493 1493 1492 1492 1493 1492 1492 1491 1491 1490 1489 1488 1488 1487 1486 1486 1485 1484 1483 1483 1483 1482 1481 1481 1480 1479 1479 1478 1477 1476
1483 1484 1485 1485 1486 1487 1487 1488 1488 1489 1489 1490 1490 1490 1490 1490 1490 1490 1490 1489 1488 1488 1487 1485 1484 1484 1483 1482 1482 1481 1480 1479 1479 1479 1478 1477 1477 1476 1475 1475 1474 1473 1472
1480 1480 1481 1482 1483 1483 1484 1484 1484 1485 1486 1486 1486 1487 1487 1487 1487 1486 1486 1486 1485 1484 1483 1482 1481 1481 1480 1479 1478 1478 1477 1476 1476 1475 1474 1474 1473 1473 1472 1471 1471 1470 1469
1477 1477 1478 1479 1479 1480 1480 1481 1481 1481 1481 1482 1483 1483 1483 1483 1483 1483 1483 1482 1481 1480 1480 1479 1478 1478 1477 1476 1475 1474 1474 1473 1472 1471 1471 1470 1470 1470 1469 1468 1467 1466 1465
1473 1474 1474 1475 1476 1476 1477 1477 1478 1478 1478 1478 1479 1479 1479 1479 1479 1479 1478 1478 1477 1477 1476 1476 1475 1475 1474 1473 1472 1471 1471 1470 1469 1468 1467 1467 1466 1466 1465 1464 1463 1462 1462
1469 1470 1471 1471 1472 1472 1473 1473 1473 1474 1474 1474 1474 1475 1475 1475 1475 1475 1475 1474 1474 1473 1473 1472 1472 1472 1471 1470 1469 1468 1468 1466 1465 1465 1464 1463 1463 1462 1461 1460 1460 1459 1458
1465 1466 1467 1467 1468 1468 1469 1470 1470 1470 1470 1471 1471 1471 1472 1471 1471 1471 1471 1471 1471 1470 1470 1470 1469 1468 1468 1467 1466 1465 1464 1463 1462 1461 1460 1460 1459 1459 1458 1457 1457 1456 1455
1461 1462 1462 1463 1464 1465 1465 1465 1466 1467 1467 1467 1467 1468 1468 1468 1468 1468 1468 1468 1468 1468 1467 1467 1466 1465 1465 1464 1463 1462 1461 1460 1459 1458 1457 1457 1456 1455 1454 1454 1453 1452 1451
1457 1458 1458 1460 1460 1460 1461 1462 1462 1463 1463 1463 1463 1463 1464 1464 1464 1464 1464 1464 1464 1464 1464 1463 1463 1462 1462 1461 1460 1460 1458 1457 1456 1455 1454 1453 1453 1452 1451 1450 1449 1448 1447
1454 1454 1455 1456 1456 1457 1457 1458 1458 1459 1459 1459 1459 1460 1460 1460 1460 1461 1461 1461 1460 1460 1460 1460 1460 1459 1459 1458 1458 1457 1456 1455 1454 1452 1451 1450 1450 1449 1448 1447 1446 1445 1444
1451 1451 1452 1453 1453 1453 1453 1454 1455 1455 1455 1455 1456 1456 1457 1457 1457 1457 1457 1457 1457 1457 1457 1456 1456 1456 1455 1455 1454 1454 1453 1452 1451 1450 1449 1448 1447 1446 1445 1444 1443 1442 1441
1448 1449 1449 1450 1450 1450 1450 1450 1451 1451 1451 1452 1452 1453 1454 1454 1454 1454 1454 1454 1454 1453 1453 1453 1453 1452 1452 1452 1451 1450 1450 1449 1448 1447 1446 1445 1444 1443 1442 1441 1440 1439 1438